When you browse on this site, cookies collect data to enhance your experience and personalize the content and advertising you see.
Visit our Privacy Policy to learn more. By continuing to use the site, you agree to this use of cookies and data.
  • In Austria
  • List of Countries
  • For 7 days
  • Water Temperature
  • Weather Map
  • News
  • Weather Widgets
  • user-avatar
    Login

    Hourly Weather Tecozautla

    Today, 25 August, Sunday

    Time Temperature Precipitation Wind Pressure Humidity
    00:00 +21°C° 0.3 mm 1 mps 623 mmHg 83%
    01:00 +21°C° 0.3 mm 1 mps 622 mmHg 84%
    02:00 +21°C° 0.3 mm 1 mps 622 mmHg 84%
    03:00 +18°C° 0 mm 0 mps 622 mmHg 85%
    04:00 +18°C° 0 mm 0 mps 622 mmHg 85%
    05:00 +18°C° 0 mm 0 mps 622 mmHg 86%
    06:00 +21°C° 0 mm 1 mps 622 mmHg 80%
    07:00 +22°C° 0 mm 1 mps 623 mmHg 74%
    08:00 +24°C° 0 mm 1 mps 624 mmHg 68%
    09:00 +25°C° 0 mm 1 mps 624 mmHg 63%
    10:00 +26°C° 0 mm 2 mps 624 mmHg 58%
    11:00 +28°C° 0 mm 2 mps 624 mmHg 53%
    12:00 +28°C° 0.1 mm 2 mps 623 mmHg 50%
    13:00 +29°C° 0.1 mm 2 mps 623 mmHg 48%
    14:00 +29°C° 0.1 mm 2 mps 622 mmHg 46%
    15:00 +29°C° 0.3 mm 2 mps 622 mmHg 51%
    16:00 +28°C° 0.3 mm 2 mps 622 mmHg 56%
    17:00 +27°C° 0.3 mm 2 mps 622 mmHg 61%
    18:00 +26°C° 0.5 mm 2 mps 622 mmHg 67%
    19:00 +24°C° 0.5 mm 2 mps 622 mmHg 72%
    20:00 +23°C° 0.5 mm 1 mps 622 mmHg 78%
    21:00 +22°C° 1.4 mm 1 mps 622 mmHg 80%
    22:00 +22°C° 1.4 mm 1 mps 622 mmHg 82%
    23:00 +21°C° 1.4 mm 1 mps 622 mmHg 84%

    Tomorrow, 26 August, Monday

    Time Temperature Precipitation Wind Pressure Humidity
    00:00 +21°C° 1.3 mm 1 mps 621 mmHg 84%
    01:00 +21°C° 1.3 mm 1 mps 621 mmHg 84%
    02:00 +20°C° 1.3 mm 2 mps 621 mmHg 84%
    03:00 +21°C° 0.3 mm 1 mps 621 mmHg 85%
    04:00 +20°C° 0.3 mm 1 mps 620 mmHg 86%
    05:00 +20°C° 0.3 mm 1 mps 620 mmHg 86%
    06:00 +21°C° 0 mm 1 mps 621 mmHg 81%
    07:00 +22°C° 0 mm 1 mps 622 mmHg 75%
    08:00 +23°C° 0 mm 1 mps 622 mmHg 70%
    09:00 +24°C° 1 mm 1 mps 622 mmHg 66%
    10:00 +25°C° 1 mm 1 mps 622 mmHg 62%
    11:00 +27°C° 1 mm 1 mps 622 mmHg 58%
    12:00 +27°C° 0.7 mm 1 mps 622 mmHg 56%
    13:00 +27°C° 0.7 mm 2 mps 621 mmHg 54%
    14:00 +28°C° 0.7 mm 2 mps 621 mmHg 52%
    15:00 +27°C° 0.7 mm 2 mps 621 mmHg 55%
    16:00 +27°C° 0.7 mm 2 mps 621 mmHg 59%
    17:00 +26°C° 0.7 mm 2 mps 620 mmHg 62%
    18:00 +25°C° 1 mm 2 mps 621 mmHg 68%
    19:00 +23°C° 1 mm 1 mps 621 mmHg 74%
    20:00 +22°C° 1 mm 1 mps 621 mmHg 80%
    21:00 +21°C° 0.7 mm 1 mps 621 mmHg 82%
    22:00 +20°C° 0.7 mm 2 mps 621 mmHg 84%
    23:00 +19°C° 0.7 mm 2 mps 621 mmHg 85%

    Day after tomorrow, 27 August, Tuesday

    Time Temperature Precipitation Wind Pressure Humidity
    00:00 +19°C° 0.3 mm 2 mps 621 mmHg 87%
    01:00 +19°C° 0.3 mm 1 mps 621 mmHg 89%
    02:00 +19°C° 0.3 mm 1 mps 620 mmHg 90%
    03:00 +18°C° 0 mm 1 mps 620 mmHg 91%
    04:00 +18°C° 0 mm 1 mps 620 mmHg 91%
    05:00 +16°C° 0 mm 0 mps 620 mmHg 91%
    06:00 +17°C° 0 mm 0 mps 621 mmHg 86%
    07:00 +19°C° 0 mm 0 mps 621 mmHg 80%
    08:00 +20°C° 0 mm 0 mps 622 mmHg 74%
    09:00 +23°C° 0 mm 1 mps 622 mmHg 68%
    10:00 +25°C° 0 mm 1 mps 623 mmHg 62%
    11:00 +26°C° 0 mm 2 mps 623 mmHg 55%
    12:00 +27°C° 0 mm 2 mps 622 mmHg 52%
    13:00 +28°C° 0 mm 3 mps 622 mmHg 48%
    14:00 +29°C° 0 mm 4 mps 622 mmHg 44%
    15:00 +28°C° 0.1 mm 4 mps 622 mmHg 51%
    16:00 +26°C° 0.1 mm 4 mps 621 mmHg 58%
    17:00 +25°C° 0.1 mm 5 mps 621 mmHg 65%
    18:00 +23°C° 0.7 mm 4 mps 621 mmHg 72%
    19:00 +22°C° 0.7 mm 3 mps 622 mmHg 79%
    20:00 +20°C° 0.7 mm 2 mps 622 mmHg 86%
    21:00 +20°C° 0.4 mm 2 mps 622 mmHg 86%
    22:00 +21°C° 0.4 mm 1 mps 623 mmHg 87%
    23:00 +21°C° 0.4 mm 1 mps 623 mmHg 87%

    28 August, Wednesday

    Time Temperature Precipitation Wind Pressure Humidity
    00:00 +21°C° 0.4 mm 1 mps 623 mmHg 87%
    01:00 +20°C° 0.4 mm 1 mps 623 mmHg 86%
    02:00 +18°C° 0.4 mm 0 mps 622 mmHg 86%
    03:00 +18°C° 0.4 mm 0 mps 622 mmHg 86%
    04:00 +18°C° 0.4 mm 0 mps 623 mmHg 86%
    05:00 +18°C° 0.4 mm 0 mps 623 mmHg 86%
    06:00 +19°C° 0.1 mm 0 mps 623 mmHg 81%
    07:00 +22°C° 0.1 mm 1 mps 624 mmHg 76%
    08:00 +23°C° 0.1 mm 1 mps 624 mmHg 71%
    09:00 +24°C° 0.1 mm 1 mps 624 mmHg 67%
    10:00 +25°C° 0.1 mm 2 mps 624 mmHg 63%
    11:00 +27°C° 0.1 mm 3 mps 624 mmHg 58%
    12:00 +27°C° 0.2 mm 4 mps 624 mmHg 56%
    13:00 +28°C° 0.2 mm 4 mps 624 mmHg 55%
    14:00 +28°C° 0.2 mm 5 mps 623 mmHg 53%
    15:00 +27°C° 0 mm 5 mps 623 mmHg 57%
    16:00 +26°C° 0 mm 6 mps 623 mmHg 62%
    17:00 +24°C° 0 mm 6 mps 623 mmHg 67%
    18:00 +22°C° 0 mm 4 mps 623 mmHg 76%
    19:00 +21°C° 0 mm 3 mps 623 mmHg 84%
    20:00 +19°C° 0 mm 2 mps 623 mmHg 93%
    21:00 +19°C° 0 mm 2 mps 623 mmHg 94%
    22:00 +18°C° 0 mm 2 mps 623 mmHg 94%
    23:00 +18°C° 0 mm 2 mps 623 mmHg 95%

    29 August, Thursday

    Time Temperature Precipitation Wind Pressure Humidity
    00:00 +18°C° 0 mm 1 mps 623 mmHg 94%
    01:00 +18°C° 0 mm 1 mps 623 mmHg 94%
    02:00 +18°C° 0 mm 1 mps 622 mmHg 93%
    03:00 +18°C° 0 mm 1 mps 622 mmHg 92%
    04:00 +18°C° 0 mm 1 mps 623 mmHg 92%
    05:00 +18°C° 0 mm 1 mps 623 mmHg 91%
    06:00 +19°C° 0 mm 1 mps 623 mmHg 85%
    07:00 +20°C° 0 mm 1 mps 624 mmHg 79%
    08:00 +21°C° 0 mm 1 mps 624 mmHg 74%
    09:00 +23°C° 0 mm 1 mps 624 mmHg 63%
    10:00 +24°C° 0 mm 2 mps 625 mmHg 52%
    11:00 +26°C° 0 mm 2 mps 625 mmHg 41%
    12:00 +27°C° 0 mm 3 mps 625 mmHg 39%
    13:00 +28°C° 0 mm 4 mps 624 mmHg 37%
    14:00 +29°C° 0 mm 4 mps 624 mmHg 36%
    15:00 +27°C° 0 mm 5 mps 623 mmHg 44%
    16:00 +26°C° 0 mm 5 mps 623 mmHg 53%
    17:00 +23°C° 0 mm 6 mps 623 mmHg 62%
    18:00 +22°C° 0 mm 4 mps 623 mmHg 71%
    19:00 +20°C° 0 mm 3 mps 623 mmHg 81%
    20:00 +19°C° 0 mm 2 mps 623 mmHg 90%
    21:00 +18°C° 0 mm 2 mps 623 mmHg 91%
    22:00 +19°C° 0 mm 1 mps 623 mmHg 92%
    23:00 +18°C° 0 mm 1 mps 623 mmHg 93%

    30 August, Friday

    Time Temperature Precipitation Wind Pressure Humidity
    00:00 +18°C° 0 mm 1 mps 622 mmHg 94%
    01:00 +16°C° 0 mm 1 mps 622 mmHg 94%
    02:00 +15°C° 0 mm 0 mps 622 mmHg 95%
    03:00 +15°C° 0 mm 0 mps 621 mmHg 95%
    04:00 +14°C° 0 mm 0 mps 621 mmHg 95%
    05:00 +14°C° 0 mm 0 mps 621 mmHg 94%
    06:00 +16°C° 0 mm 0 mps 622 mmHg 87%
    07:00 +17°C° 0 mm 0 mps 623 mmHg 79%
    08:00 +19°C° 0 mm 0 mps 624 mmHg 71%
    09:00 +23°C° 0 mm 1 mps 624 mmHg 60%
    10:00 +25°C° 0 mm 1 mps 624 mmHg 49%
    11:00 +26°C° 0 mm 2 mps 624 mmHg 38%
    12:00 +27°C° 0 mm 2 mps 624 mmHg 36%
    13:00 +28°C° 0 mm 3 mps 623 mmHg 34%
    14:00 +29°C° 0 mm 3 mps 623 mmHg 32%
    15:00 +27°C° 0 mm 4 mps 623 mmHg 38%
    16:00 +26°C° 0 mm 5 mps 622 mmHg 45%
    17:00 +25°C° 0 mm 5 mps 622 mmHg 51%
    18:00 +22°C° 0 mm 4 mps 622 mmHg 62%
    19:00 +20°C° 0 mm 3 mps 622 mmHg 73%
    20:00 +19°C° 0 mm 2 mps 622 mmHg 84%
    21:00 +19°C° 0 mm 1 mps 622 mmHg 87%
    22:00 +18°C° 0 mm 1 mps 622 mmHg 90%
    23:00 +18°C° 0 mm 1 mps 622 mmHg 93%
    Show more